Weather History for Kirksville, MO

Change the Weather History Date:

Thursday, March 28, 2013

  Actual Average Record
Temperature  
Mean Temperature 45 °F 46 °F  
Max Temperature 55 °F 57 °F 79 °F (1945)
Min Temperature 34 °F 35 °F 13 °F (1921)
Degree Days  
Heating Degree Days 20 19  
Month to date heating degree days 927 697  
Since 1 July heating degree days 5307 5230  
Cooling Degree Days 0 0  
Month to date cooling degree days 0 0  
Year to date cooling degree days 0 0  
Moisture  
Dew Point 32 °F    
Average Humidity 61    
Maximum Humidity 75    
Minimum Humidity 47    
Precipitation  
Precipitation 0.00 in 0.09 in 1.50 in (1938)
Month to date precipitation 3.20 2.31  
Year to date precipitation 8.65 5.11  
Sea Level Pressure  
Sea Level Pressure 30.30 in    
Wind  
Wind Speed 9 mph (ESE)    
Max Wind Speed 16 mph    
Max Gust Speed 22 mph    
Visibility 10 miles    
Events      
T = Trace of Precipitation, MM = Missing Value Source: NWS Daily Summary

Daily Weather History Graph

Daily Weather History Graph

Search for Another Location

Airport:

Trip Planner

Search our weather history database for the weather conditions in past years. The results will help you decide how hot, cold, wet, or windy it might be!

Date:

Astronomy

Mar. 28, 2013 Rise Set
Actual Time 7:00 AM CDT 7:30 PM CDT
Civil Twilight 6:32 AM CDT 7:58 PM CDT
Nautical Twilight 6:00 AM CDT 8:30 PM CDT
Astronomical Twilight 5:28 AM CDT 9:03 PM CDT
Moon 9:23 PM CDT (3/28) 7:28 AM CDT (3/28)
Length of Visible Light 13h 25m
Length of Day
12h 30m
Full, 98% of the Moon is Illuminated
Mar 28
Full
Apr 2
Last Quarter
Apr 10
New
Apr 18
First Quarter
Apr 25
Full

Hourly Weather History & Observations

Time (CDT) Temp. Windchill Dew Point Humidity Pressure Visibility Wind Dir Wind Speed Gust Speed Precip Events Conditions
12:55 AM 36.0 °F 31.1 °F 28.9 °F 76% 30.34 in 10.0 mi ESE 5.8 mph - N/A   Overcast
1:55 AM 36.0 °F 31.1 °F 27.0 °F 70% 30.34 in 10.0 mi East 5.8 mph - N/A   Overcast
2:55 AM 35.1 °F 29.3 °F 28.0 °F 76% 30.33 in 10.0 mi East 6.9 mph - N/A   Overcast
3:55 AM 35.1 °F 30.1 °F 28.0 °F 76% 30.32 in 10.0 mi East 5.8 mph - N/A   Overcast
4:55 AM 35.1 °F 30.1 °F 27.0 °F 72% 30.32 in 10.0 mi ESE 5.8 mph - N/A   Overcast
5:55 AM 35.1 °F 28.6 °F 26.1 °F 70% 30.32 in 10.0 mi East 8.1 mph - N/A   Overcast
6:55 AM 35.1 °F 30.1 °F 26.1 °F 70% 30.33 in 10.0 mi East 5.8 mph - N/A   Overcast
7:55 AM 35.1 °F 30.1 °F 26.1 °F 70% 30.34 in 10.0 mi East 5.8 mph - N/A   Scattered Clouds
8:55 AM 39.0 °F 32.8 °F 27.0 °F 62% 30.34 in 10.0 mi East 9.2 mph - N/A   Clear
9:55 AM 42.1 °F 34.9 °F 30.0 °F 62% 30.34 in 10.0 mi ESE 13.8 mph - N/A   Clear
10:55 AM 46.0 °F 39.9 °F 32.0 °F 58% 30.33 in 10.0 mi ESE 13.8 mph - N/A   Clear
11:55 AM 48.9 °F - 34.0 °F 56% 30.32 in 10.0 mi ESE 13.8 mph - N/A   Partly Cloudy
12:55 PM 51.1 °F - 35.1 °F 54% 30.31 in 10.0 mi ESE 11.5 mph - N/A   Clear
1:55 PM 53.1 °F - 36.0 °F 52% 30.29 in 10.0 mi ESE 10.4 mph - N/A   Clear
2:55 PM 54.0 °F - 36.0 °F 51% 30.26 in 10.0 mi ESE 12.7 mph - N/A   Clear
3:55 PM 55.0 °F - 36.0 °F 49% 30.24 in 10.0 mi East 13.8 mph 20.7 mph N/A   Clear
4:55 PM 54.0 °F - 35.1 °F 49% 30.23 in 10.0 mi SE 12.7 mph - N/A   Clear
5:55 PM 52.0 °F - 35.1 °F 53% 30.24 in 10.0 mi ESE 10.4 mph - N/A   Partly Cloudy
6:55 PM 50.0 °F - 37.0 °F 61% 30.25 in 10.0 mi ESE 5.8 mph - N/A   Clear
7:55 PM 46.9 °F - 35.1 °F 63% 30.26 in 10.0 mi East 6.9 mph - N/A   Scattered Clouds
8:55 PM 45.0 °F 41.2 °F 35.1 °F 68% 30.25 in 10.0 mi East 6.9 mph - N/A   Mostly Cloudy
9:55 PM 44.1 °F 40.8 °F 34.0 °F 68% 30.28 in 10.0 mi East 5.8 mph - N/A   Clear
10:55 PM 43.0 °F 38.2 °F 34.0 °F 71% 30.28 in 10.0 mi East 8.1 mph - N/A   Clear
11:55 PM 42.1 °F 38.4 °F 34.0 °F 73% 30.28 in 10.0 mi ENE 5.8 mph - N/A   Mostly Cloudy